| time (UTC) | temp C | wind direction | speed KPH | gust KPH | rain 1hr cm | rain 24hr cm | rain mn cm | humidity % | barometer mb |
| 20260508021508 | 23 | 90 | 3.2 | 6.4 | 0.00 | 0.00 | 0.00 | 17 | 1006.7 |
| 20260508020011 | 23 | 90 | 1.6 | 6.4 | 0.00 | 0.00 | 0.00 | 17 | 1006.8 |
| 20260508014510 | 24 | 90 | 4.8 | 9.7 | 0.00 | 0.00 | 0.00 | 17 | 1006.7 |
| 20260508013010 | 24 | 96 | 0.0 | 6.4 | 0.00 | 0.00 | 0.00 | 16 | 1006.7 |
| 20260508011508 | 25 | 113 | 1.6 | 4.8 | 0.00 | 0.00 | 0.00 | 16 | 1006.9 |
| 20260508010007 | 25 | 112 | 1.6 | 9.7 | 0.00 | 0.00 | 0.00 | 15 | 1006.9 |
| 20260508004508 | 25 | 114 | 3.2 | 9.7 | 0.00 | 0.00 | 0.00 | 15 | 1007.0 |
| 20260508003002 | 25 | 63 | 1.6 | 8.0 | 0.00 | 0.00 | 0.00 | 16 | 1007.1 |
| 20260508001501 | 26 | 84 | 1.6 | 12.9 | 0.00 | 0.00 | 0.00 | 15 | 1007.3 |
| 20260508000100 | 26 | 146 | 1.6 | 11.3 | 0.00 | 0.00 | 0.00 | 15 | 1007.5 |
| 20260507234558 | 26 | 181 | 6.4 | 11.3 | 0.00 | 0.00 | 0.00 | 15 | 1007.7 |
| 20260507233055 | 26 | 144 | 4.8 | 12.9 | 0.00 | 0.00 | 0.00 | 15 | 1007.8 |
| 20260507231552 | 26 | 234 | 4.8 | 11.3 | 0.00 | 0.00 | 0.00 | 15 | 1008.0 |
| 20260507230048 | 26 | 188 | 4.8 | 12.9 | 0.00 | 0.00 | 0.00 | 15 | 1008.4 |
| 20260507224548 | 26 | 221 | 8.0 | 16.1 | 0.00 | 0.00 | 0.00 | 15 | 1008.7 |
| 20260507223048 | 26 | 173 | 8.0 | 19.3 | 0.00 | 0.00 | 0.00 | 15 | 1008.9 |
| 20260507221542 | 25 | 173 | 4.8 | 16.1 | 0.00 | 0.00 | 0.00 | 17 | 1009.3 |
| 20260507220039 | 26 | 226 | 3.2 | 14.5 | 0.00 | 0.00 | 0.00 | 14 | 1009.8 |
| 20260507214535 | 25 | 137 | 3.2 | 12.9 | 0.00 | 0.00 | 0.00 | 15 | 1010.2 |
| 20260507213040 | 25 | 161 | 3.2 | 14.5 | 0.00 | 0.00 | 0.00 | 15 | 1010.6 |
| 20260507211530 | 24 | 103 | 4.8 | 16.1 | 0.00 | 0.00 | 0.00 | 15 | 1011.0 |
| 20260507210029 | 24 | 126 | 8.0 | 14.5 | 0.00 | 0.00 | 0.00 | 16 | 1011.4 |
| 20260507204523 | 23 | 295 | 4.8 | 12.9 | 0.00 | 0.00 | 0.00 | 17 | 1011.9 |
| 20260507203020 | 22 | 105 | 3.2 | 14.5 | 0.00 | 0.00 | 0.00 | 16 | 1012.2 |
| 20260507201518 | 23 | 140 | 8.0 | 14.5 | 0.00 | 0.00 | 0.00 | 16 | 1012.5 |
| 20260507200054 | 21 | 162 | 4.8 | 16.1 | 0.00 | 0.00 | 0.00 | 18 | 1012.8 |
| 20260507194547 | 22 | 67 | 4.8 | 14.5 | 0.00 | 0.00 | 0.00 | 16 | 1013.1 |
| 20260507193051 | 22 | 101 | 8.0 | 16.1 | 0.00 | 0.00 | 0.00 | 16 | 1013.5 |
| 20260507191542 | 22 | 205 | 1.6 | 14.5 | 0.00 | 0.00 | 0.00 | 16 | 1013.8 |
| 20260507190039 | 21 | 140 | 1.6 | 12.9 | 0.00 | 0.00 | 0.00 | 17 | 1014.3 |
| 20260507184511 | 20 | 280 | 1.6 | 11.3 | 0.00 | 0.00 | 0.00 | 17 | 1014.6 |
| 20260507183007 | 21 | 223 | 6.4 | 12.9 | 0.00 | 0.00 | 0.00 | 18 | 1014.9 |
| 20260507181517 | 19 | 348 | 3.2 | 9.7 | 0.00 | 0.00 | 0.00 | 19 | 1015.3 |
| 20260507180022 | 19 | 125 | 1.6 | 11.3 | 0.00 | 0.00 | 0.00 | 20 | 1015.4 |
| 20260507174528 | 18 | 176 | 1.6 | 8.0 | 0.00 | 0.00 | 0.00 | 21 | 1015.7 |
| 20260507173013 | 18 | 117 | 3.2 | 11.3 | 0.00 | 0.00 | 0.00 | 21 | 1016.1 |
| 20260507171501 | 17 | 5 | 3.2 | 8.0 | 0.00 | 0.00 | 0.00 | 22 | 1016.4 |
| 20260507170101 | 17 | 5 | 4.8 | 9.7 | 0.00 | 0.00 | 0.00 | 23 | 1016.7 |
| 20260507164558 | 16 | 24 | 3.2 | 8.0 | 0.00 | 0.00 | 0.00 | 24 | 1017.1 |
| 20260507163101 | 15 | 19 | 4.8 | 8.0 | 0.00 | 0.00 | 0.00 | 27 | 1017.3 |
| 20260507161552 | 15 | 27 | 1.6 | 8.0 | 0.00 | 0.00 | 0.00 | 28 | 1017.5 |
| 20260507160050 | 14 | 49 | 4.8 | 8.0 | 0.00 | 0.00 | 0.00 | 29 | 1017.6 |
| 20260507154545 | 13 | 57 | 3.2 | 6.4 | 0.00 | 0.00 | 0.00 | 30 | 1017.8 |
| 20260507153041 | 12 | 63 | 1.6 | 6.4 | 0.00 | 0.00 | 0.00 | 33 | 1017.9 |
| 20260507151539 | 12 | 65 | 0.0 | 4.8 | 0.00 | 0.00 | 0.00 | 35 | 1018.0 |
| 20260507150036 | 11 | 64 | 1.6 | 6.4 | 0.00 | 0.00 | 0.00 | 36 | 1018.3 |
| 20260507143009 | 10 | 82 | 0.0 | 4.8 | 0.00 | 0.00 | 0.00 | 35 | 1018.2 |
| 20260507141515 | 9 | 82 | 0.0 | 0.0 | 0.00 | 0.00 | 0.00 | 38 | 1018.3 |
| 20260507140026 | 8 | 82 | 0.0 | 0.0 | 0.00 | 0.00 | 0.00 | 44 | 1018.3 |
| 20260507134503 | 6 | 82 | 0.0 | 0.0 | 0.00 | 0.00 | 0.00 | 46 | 1018.3 |
| 20260507133045 | 6 | 82 | 1.6 | 6.4 | 0.00 | 0.00 | 0.00 | 49 | 1018.1 |
| 20260507131606 | 5 | 82 | 3.2 | 6.4 | 0.00 | 0.00 | 0.00 | 48 | 1018.1 |
| 20260507130019 | 3 | 82 | 1.6 | 4.8 | 0.00 | 0.00 | 0.00 | 53 | 1018.1 |
| 20260507124532 | 2 | 82 | 0.0 | 3.2 | 0.00 | 0.05 | 0.00 | 54 | 1017.9 |
| 20260507123055 | 2 | 82 | 0.0 | 4.8 | 0.00 | 0.05 | 0.00 | 54 | 1017.8 |
| 20260507121549 | 2 | 82 | 3.2 | 4.8 | 0.00 | 0.05 | 0.00 | 57 | 1017.4 |
| 20260507120049 | 3 | 82 | 1.6 | 6.4 | 0.00 | 0.05 | 0.00 | 53 | 1017.3 |
| 20260507114545 | 3 | 82 | 0.0 | 3.2 | 0.00 | 0.05 | 0.00 | 52 | 1017.0 |
| 20260507113044 | 3 | 82 | 0.0 | 4.8 | 0.00 | 0.05 | 0.00 | 55 | 1017.1 |
| 20260507111547 | 3 | 82 | 0.0 | 3.2 | 0.00 | 0.05 | 0.00 | 57 | 1017.1 |
| 20260507110041 | 3 | 82 | 0.0 | 1.6 | 0.00 | 0.05 | 0.00 | 58 | 1017.3 |
| 20260507104538 | 4 | 82 | 0.0 | 0.0 | 0.00 | 0.05 | 0.00 | 55 | 1017.1 |
| 20260507103040 | 4 | 82 | 0.0 | 3.2 | 0.00 | 0.05 | 0.00 | 49 | 1017.1 |
| 20260507101543 | 5 | 82 | 0.0 | 0.0 | 0.00 | 0.05 | 0.00 | 52 | 1016.9 |
| 20260507100036 | 5 | 82 | 0.0 | 3.2 | 0.00 | 0.05 | 0.00 | 49 | 1016.8 |
| 20260507094539 | 5 | 82 | 0.0 | 0.0 | 0.00 | 0.05 | 0.00 | 49 | 1016.7 |
| 20260507093034 | 5 | 82 | 0.0 | 1.6 | 0.00 | 0.05 | 0.00 | 51 | 1016.8 |
| 20260507091530 | 5 | 82 | 1.6 | 4.8 | 0.00 | 0.05 | 0.00 | 50 | 1016.8 |
| 20260507090032 | 5 | 82 | 0.0 | 1.6 | 0.00 | 0.05 | 0.00 | 53 | 1016.6 |
| 20260507084525 | 5 | 82 | 0.0 | 1.6 | 0.00 | 0.05 | 0.00 | 43 | 1016.7 |
| 20260507083019 | 6 | 82 | 3.2 | 4.8 | 0.00 | 0.05 | 0.00 | 36 | 1016.6 |
| 20260507081522 | 6 | 82 | 0.0 | 3.2 | 0.00 | 0.05 | 0.00 | 35 | 1016.5 |
| 20260507080012 | 7 | 82 | 0.0 | 1.6 | 0.00 | 0.05 | 0.00 | 36 | 1016.4 |
| 20260507074509 | 7 | 82 | 0.0 | 1.6 | 0.00 | 0.05 | 0.00 | 34 | 1016.4 |
| 20260507073009 | 8 | 82 | 0.0 | 3.2 | 0.00 | 0.05 | 0.00 | 37 | 1016.5 |
| 20260507071503 | 8 | 82 | 1.6 | 6.4 | 0.00 | 0.05 | 0.00 | 37 | 1016.6 |
| 20260507070001 | 8 | 82 | 0.0 | 0.0 | 0.00 | 0.05 | 0.00 | 31 | 1016.4 |
| 20260507064558 | 9 | 82 | 0.0 | 8.0 | 0.00 | 0.05 | 0.00 | 31 | 1016.4 |
| 20260507063055 | 10 | 78 | 0.0 | 0.0 | 0.00 | 0.05 | 0.00 | 32 | 1016.3 |
| 20260507061553 | 10 | 78 | 3.2 | 12.9 | 0.00 | 0.05 | 0.00 | 29 | 1016.4 |
| 20260507060058 | 11 | 163 | 1.6 | 6.4 | 0.00 | 0.05 | 0.00 | 28 | 1016.2 |
| 20260507054550 | 11 | 165 | 0.0 | 3.2 | 0.00 | 0.05 | 0.05 | 28 | 1016.0 |
| 20260507053053 | 11 | 165 | 3.2 | 9.7 | 0.00 | 0.05 | 0.05 | 27 | 1015.8 |
| 20260507051545 | 11 | 169 | 1.6 | 4.8 | 0.00 | 0.05 | 0.05 | 28 | 1015.7 |
| 20260507050043 | 12 | 157 | 3.2 | 9.7 | 0.00 | 0.05 | 0.05 | 30 | 1015.7 |
| 20260507044554 | 12 | 148 | 1.6 | 4.8 | 0.00 | 0.05 | 0.05 | 28 | 1015.6 |
| 20260507043036 | 12 | 130 | 8.0 | 14.5 | 0.00 | 0.05 | 0.05 | 24 | 1015.5 |
| 20260507041533 | 13 | 142 | 4.8 | 12.9 | 0.00 | 0.05 | 0.05 | 24 | 1015.3 |
| 20260507040035 | 13 | 155 | 4.8 | 12.9 | 0.00 | 0.05 | 0.05 | 24 | 1015.1 |
| 20260507034535 | 14 | 145 | 9.7 | 17.7 | 0.00 | 0.05 | 0.05 | 23 | 1014.9 |
| 20260507033028 | 14 | 132 | 8.0 | 12.9 | 0.00 | 0.05 | 0.05 | 22 | 1014.6 |
| 20260507031525 | 15 | 153 | 6.4 | 14.5 | 0.00 | 0.05 | 0.05 | 22 | 1014.4 |
| 20260507030023 | 15 | 162 | 6.4 | 17.7 | 0.00 | 0.05 | 0.05 | 22 | 1013.8 |
| 20260507024521 | 15 | 141 | 11.3 | 17.7 | 0.00 | 0.05 | 0.05 | 21 | 1013.5 |
| 20260507023021 | 16 | 152 | 12.9 | 19.3 | 0.00 | 0.05 | 0.05 | 20 | 1013.3 |